• Join FlightAware (Why Join?)
  • Login
  • US Flag 
10:35PM EST


 

Airport Tracker/Info


-or-


 

Live Flight TrackerFlight Track Log ✈ UAL4380 ✈ 08-Apr-2013 ✈ KBHM - KIAH

Flight Track Log - Related Links

Times and Time Zones

All times are in EDT time to prevent confusion due to time zone crossing. See the UAL4380 flight status page for this flight to view local times or setup timezone preferences in your user account.

Time Position Orientation Groundspeed Altitude Reporting Facility
EDT Latitude Longitude Course Direction KTS MPH feet Rate Location/Type
07:31PM 33.5553 -86.7733 231° Southwest 156 180 1,300  Level Atlanta Center
07:31PM 33.5397 -86.8078 242° Southwest 197 227 2,600 1,860 Climbing Atlanta Center
07:32PM 33.5092 -86.8667 238° Southwest 243 280 4,400 2,040 Climbing Atlanta Center
07:33PM 33.4539 -86.9094 213° Southwest 249 287 6,800 2,400 Climbing Atlanta Center
07:34PM 33.3165 -87.0936 230° Southwest  Level FlightAware Approximate
07:34PM 33.4025 -86.9650 222° Southwest 255 293 9,300  Level Atlanta Center
07:35PM 33.2581 -87.1796 231° Southwest  Level FlightAware Approximate
07:35PM 33.3550 -87.0331 230° Southwest 261 300 11,000  Level Atlanta Center
07:36PM 33.2003 -87.2663 231° Southwest  Level FlightAware Approximate
07:36PM 33.3008 -87.1133 231° Southwest 287 330 11,900  Level Atlanta Center
07:37PM 33.2403 -87.2031 231° Southwest 323 372 13,000 1,080 Climbing Atlanta Center
07:38PM 33.1772 -87.2950 231° Southwest 347 399 14,100 1,080 Climbing Atlanta Center
07:39PM 33.1119 -87.3917 231° Southwest 369 425 15,200 1,200 Climbing Atlanta Center
07:40PM 33.0469 -87.4833 230° Southwest 369 425 16,500 1,260 Climbing Atlanta Center
07:41PM 32.9728 -87.5894 230° Southwest 369 425 17,800 1,200 Climbing Atlanta Center
07:42PM 32.9094 -87.6858 232° Southwest 374 430 19,000 1,140 Climbing Atlanta Center
07:43PM 32.8311 -87.7936 229° Southwest 359 413 20,400 1,200 Climbing Memphis Center
07:44PM 32.7644 -87.8942 232° Southwest 371 427 21,700 1,200 Climbing Memphis Center
07:45PM 32.6975 -87.9922 231° Southwest 383 441 22,900 600 Climbing Memphis Center
07:46PM 32.6431 -88.1022 240° Southwest 388 447 23,000 540 Climbing Memphis Center
07:47PM 32.6056 -88.2292 251° West 393 452 24,000 1,200 Climbing Memphis Center
07:48PM 32.5722 -88.3481 252° West 398 458 25,500 1,560 Climbing Memphis Center
07:49PM 32.5325 -88.4797 250° West 393 452 27,200 1,560 Climbing Memphis Center
07:50PM 32.4986 -88.5961 251° West 386 444 28,700 1,380 Climbing Memphis Center
07:51PM 32.4667 -88.7050 251° West 376 433 30,000 660 Climbing Memphis Center
07:52PM 32.4308 -88.8239 250° West 376 433 30,100 480 Climbing Memphis Center
07:53PM 32.3925 -88.9450 249° West 381 438 31,000 900 Climbing Memphis Center
07:54PM 32.3542 -89.0711 250° West 400 460 31,900 900 Climbing Memphis Center
07:55PM 32.3178 -89.1969 251° West 400 460 32,900 900 Climbing Memphis Center
07:56PM 32.2792 -89.3203 250° West 405 466 33,800 540 Climbing Memphis Center
07:57PM 32.2425 -89.4411 250° West 405 466 34,000 60 Climbing Memphis Center
07:58PM 32.2039 -89.5619 249° West 405 466 34,000  Level Memphis Center
07:59PM 32.1669 -89.6800 250° West 405 466 34,000  Level Memphis Center
08:00PM 32.1319 -89.8006 251° West 400 460 34,000  Level Memphis Center
08:01PM 32.0950 -89.9183 250° West 389 448 34,000  Level Memphis Center
08:02PM 32.0578 -90.0386 250° West 389 448 34,000  Level Memphis Center
08:03PM 32.0183 -90.1614 249° West 389 448 34,000  Level Memphis Center
08:04PM 31.9808 -90.2814 250° West 394 453 34,000  Level Memphis Center
08:05PM 31.9433 -90.4014 250° West 394 453 34,000  Level Memphis Center
08:07PM 31.8756 -90.6139 249° West 394 453 34,000  Level Houston Center
08:08PM 31.8361 -90.7350 249° West 396 456 34,000  Level Houston Center
08:09PM 31.7994 -90.8533 250° West 391 450 34,000  Level Houston Center
08:10PM 31.7586 -90.9761 249° West 399 459 34,000  Level Houston Center
08:11PM 31.7019 -91.1108 244° Southwest 392 451 34,000  Level Houston Center
08:12PM 31.6519 -91.2247 243° Southwest 389 448 34,000  Level Houston Center
08:13PM 31.6003 -91.3378 242° Southwest 391 450 34,000  Level Houston Center
08:15PM 31.5497 -91.4517 243° Southwest 393 452 34,000  Level Houston Center
08:16PM 31.4983 -91.5656 242° Southwest 394 453 34,000  Level Houston Center
08:17PM 31.4475 -91.6783 242° Southwest 394 453 34,000  Level Houston Center
08:18PM 31.3872 -91.8156 243° Southwest 394 453 34,000  Level Houston Center
08:19PM 31.3347 -91.9286 241° Southwest 394 453 34,000  Level Houston Center
08:20PM 31.2842 -92.0389 242° Southwest 394 453 34,000  Level Houston Center
08:21PM 31.2311 -92.1508 241° Southwest 394 453 34,000  Level Houston Center
08:22PM 31.1800 -92.2642 242° Southwest 394 453 34,000  Level Houston Center
08:23PM 31.1283 -92.3775 242° Southwest 396 456 34,000  Level Houston Center
08:24PM 31.0767 -92.4911 242° Southwest 398 458 34,000  Level Houston Center
08:25PM 31.0139 -92.6275 242° Southwest 399 459 34,000  Level Houston Center
08:26PM 30.9669 -92.7286 242° Southwest 399 459 34,000  Level Houston Center
08:27PM 30.9039 -92.8667 242° Southwest 401 461 34,000  Level Houston Center
08:28PM 30.8561 -92.9692 242° Southwest 400 460 34,000  Level Houston Center
08:29PM 30.8036 -93.0844 242° Southwest 403 464 34,000  Level Houston Center
08:30PM 30.7283 -93.1789 227° Southwest 412 474 34,000 -60 Level Houston Center
08:31PM 30.5897 -93.2017 188° South 423 487 33,900 -720 Descending Houston Center
08:32PM 30.4778 -93.2344 194° South 418 481 32,600 -1,320 Descending Houston Center
08:33PM 30.4086 -93.3356 232° Southwest 405 466 31,200 -1,320 Descending Houston Center
08:34PM 30.3958 -93.4758 264° West 406 467 29,900 -1,380 Descending Houston Center
08:35PM 30.3711 -93.6083 258° West 406 467 28,400 -1,380 Descending Houston Center
08:36PM 30.3422 -93.7336 255° West 410 472 27,100 -1,320 Descending Houston Center
08:37PM 30.3133 -93.8608 255° West 411 473 25,700 -1,320 Descending Houston Center
08:38PM 30.2678 -93.9789 246° West 410 472 24,400 -1,320 Descending Houston Center
08:39PM 30.2003 -94.0792 232° Southwest 398 458 23,000 -1,380 Descending Houston Center
08:40PM 30.1414 -94.1700 233° Southwest 360 414 21,600 -2,220 Descending Houston Center
08:41PM 30.1369 -94.2322 265° West 330 380 19,800 -4,380 Descending Houston Center
08:41PM 30.1608 -94.2911 295° West 336 387 17,100 -4,380 Descending Houston Center
08:42PM 30.1928 -94.3914 290° West 335 386 12,700 -3,480 Descending Houston Center
08:43PM 30.1750 -94.4914 258° West 320 368 10,000 -1,320 Descending Houston Center
08:44PM 30.1578 -94.5936 259° West 308 354 10,000  Level Houston Center
08:45PM 30.1414 -94.6906 259° West 307 353 10,000 -300 Level Houston Center
08:46PM 30.1267 -94.7822 260° West 294 338 9,500 -1,320 Descending Houston Center
08:47PM 30.1089 -94.8717 257° West 259 298 7,400 -1,680 Descending Houston Center
08:49PM 30.1058 -94.9517 267° West 269 310 6,100 -720 Descending Houston Center
08:50PM 30.1056 -95.0386 270° West 272 313 6,000 -60 Descending Houston Center
08:51PM 30.1064 -95.1353 271° West 280 322 6,000  Level Houston Center
08:52PM 30.1058 -95.2222 270° West 270 311 6,000  Level Houston Center
08:53PM 30.1072 -95.3064 271° West 267 307 6,000 -120 Level Houston Center
08:54PM 30.1056 -95.4011 269° West 278 320 5,800 -660 Descending Houston Center
08:55PM 30.1069 -95.4853 271° West 258 297 4,700 -1,200 Descending Houston Center
08:56PM 30.1072 -95.5594 270° West 257 296 3,300 -840 Descending Houston Center
08:57PM 30.1067 -95.6547 270° West 253 291 3,000 -180 Descending Houston Center
08:58PM 30.0953 -95.7208 259° West 234 269 3,000  Level Houston Center
08:59PM 30.0506 -95.7478 208° Southwest 176 203 3,000  Level Houston Center
09:00PM 30.0133 -95.7283 156° South 187 215 3,000  Level Houston Center
09:01PM 30.0061 -95.6711 98° East 181 208 3,000  Level Houston Center
09:02PM 30.0069 -95.6108 89° East 186 214 3,000  Level Houston Center
09:03PM 30.0072 -95.5542 90° East 183 211 3,000 -300 Level Houston Center
09:04PM 30.0067 -95.4925 91° East 181 208 2,400 -720 Descending Houston Center